TimeEDT,TemperatureF,Dew PointF,Humidity,Sea Level PressureIn,VisibilityMPH,Wind Direction,Wind SpeedMPH,Gust SpeedMPH,PrecipitationIn,Events,Conditions,WindDirDegrees,DateUTC
12:56 AM,79.0,75.9,90,30.13,7.0,Calm,Calm,-,N/A,,Clear,0,2013-07-31 04:56:00
1:40 AM,78.1,75.0,90,30.13,1.5,Calm,Calm,-,N/A,,Clear,0,2013-07-31 05:40:00
1:46 AM,77.0,73.9,90,30.13,0.8,Calm,Calm,-,N/A,,Clear,0,2013-07-31 05:46:00
1:49 AM,77.0,75.0,94,30.13,1.2,Calm,Calm,-,N/A,,Clear,0,2013-07-31 05:49:00
1:53 AM,77.0,75.2,94,30.12,3.0,Calm,Calm,-,N/A,,Clear,0,2013-07-31 05:53:00
1:56 AM,77.0,75.0,94,30.13,4.0,Calm,Calm,-,N/A,,Clear,0,2013-07-31 05:56:00
2:56 AM,78.1,75.9,93,30.11,6.0,Calm,Calm,-,N/A,,Clear,0,2013-07-31 06:56:00
3:23 AM,75.9,73.9,94,30.10,1.8,Calm,Calm,-,N/A,,Clear,0,2013-07-31 07:23:00
3:25 AM,75.9,73.9,94,30.10,1.0,Calm,Calm,-,N/A,,Clear,0,2013-07-31 07:25:00
3:34 AM,77.0,73.9,90,30.10,2.0,Calm,Calm,-,N/A,,Clear,0,2013-07-31 07:34:00
3:41 AM,78.1,75.0,90,30.10,7.0,Calm,Calm,-,N/A,,Clear,0,2013-07-31 07:41:00
3:56 AM,77.0,73.9,90,30.11,7.0,WSW,3.5,-,N/A,,Clear,250,2013-07-31 07:56:00
4:56 AM,77.0,73.0,88,30.11,8.0,Calm,Calm,-,N/A,,Scattered Clouds,0,2013-07-31 08:56:00
5:56 AM,75.9,73.0,91,30.11,9.0,Calm,Calm,-,N/A,,Mostly Cloudy,0,2013-07-31 09:56:00
6:56 AM,77.0,73.0,88,30.12,5.0,North,-9999.0,-,N/A,,Mostly Cloudy,0,2013-07-31 10:56:00
7:56 AM,78.1,73.9,87,30.12,7.0,Calm,Calm,-,N/A,,Mostly Cloudy,0,2013-07-31 11:56:00
8:56 AM,82.0,73.0,74,30.13,10.0,Calm,Calm,-,N/A,,Mostly Cloudy,0,2013-07-31 12:56:00
9:56 AM,82.9,73.0,72,30.14,10.0,NNW,3.5,-,N/A,,Overcast,330,2013-07-31 13:56:00
10:56 AM,84.0,73.9,72,30.13,10.0,Calm,Calm,-,N/A,,Mostly Cloudy,0,2013-07-31 14:56:00
11:56 AM,87.1,73.0,63,30.13,10.0,Variable,3.5,-,N/A,,Mostly Cloudy,0,2013-07-31 15:56:00
12:56 PM,88.0,73.0,61,30.11,10.0,SSE,3.5,-,N/A,,Mostly Cloudy,150,2013-07-31 16:56:00
1:56 PM,90.0,73.9,59,30.08,10.0,South,5.8,-,N/A,,Mostly Cloudy,170,2013-07-31 17:56:00
2:52 PM,87.8,73.4,62,30.04,10.0,South,5.8,-,N/A,Thunderstorm,Thunderstorm,180,2013-07-31 18:52:00
2:56 PM,87.1,73.0,63,30.04,10.0,South,6.9,-,N/A,Thunderstorm,Thunderstorm,170,2013-07-31 18:56:00
3:56 PM,84.0,75.0,74,30.03,10.0,SSE,6.9,-,N/A,Thunderstorm,Thunderstorm,160,2013-07-31 19:56:00
4:53 PM,80.6,75.2,84,30.05,2.0,SSW,5.8,-,0.02,Rain-Thunderstorm,Thunderstorms and Rain,210,2013-07-31 20:53:00
4:56 PM,81.0,75.9,85,30.05,2.0,SSW,5.8,-,0.02,Rain-Thunderstorm,Thunderstorms and Rain,210,2013-07-31 20:56:00
5:03 PM,80.1,75.0,85,30.05,2.0,SSW,4.6,-,0.01,Rain-Thunderstorm,Thunderstorms and Rain,200,2013-07-31 21:03:00
5:27 PM,79.0,75.0,88,30.05,1.8,West,6.9,-,0.07,Rain-Thunderstorm,Heavy Rain,280,2013-07-31 21:27:00
5:32 PM,78.1,75.9,93,30.05,1.8,West,9.2,-,0.09,Rain-Thunderstorm,Thunderstorms and Rain,280,2013-07-31 21:32:00
5:39 PM,77.0,75.0,94,30.06,0.5,WSW,8.1,-,0.12,Fog-Rain-Thunderstorm,Heavy Thunderstorms and Rain,250,2013-07-31 21:39:00
5:44 PM,75.9,73.9,94,30.07,0.5,WSW,10.4,18.4,0.17,Fog-Rain-Thunderstorm,Heavy Thunderstorms and Rain,250,2013-07-31 21:44:00
5:53 PM,73.4,71.6,94,30.06,0.5,WSW,11.5,24.2,0.48,Fog-Rain-Thunderstorm,Heavy Thunderstorms and Rain,250,2013-07-31 21:53:00
5:56 PM,75.0,72.0,90,30.07,0.5,SW,10.4,-,0.54,Fog-Rain-Thunderstorm,Heavy Thunderstorms and Rain,230,2013-07-31 21:56:00
6:03 PM,75.0,73.0,94,30.07,0.5,SW,10.4,-,0.10,Rain-Thunderstorm,Heavy Thunderstorms and Rain,230,2013-07-31 22:03:00
6:35 PM,75.0,73.0,94,30.06,0.5,SW,5.8,-,0.79,Rain-Thunderstorm,Heavy Thunderstorms and Rain,230,2013-07-31 22:35:00
6:42 PM,75.0,73.0,94,30.06,2.0,SW,6.9,-,0.82,Rain-Thunderstorm,Heavy Thunderstorms and Rain,220,2013-07-31 22:42:00
6:53 PM,75.0,73.0,94,30.06,3.0,SW,5.8,-,0.85,Rain-Thunderstorm,Rain,220,2013-07-31 22:53:00
7:00 PM,75.0,73.0,94,30.06,1.8,SSW,6.9,-,0.02,Rain-Thunderstorm,Rain,210,2013-07-31 23:00:00
7:15 PM,75.0,73.0,94,30.06,3.0,SSW,8.1,-,0.07,Rain,Rain,200,2013-07-31 23:15:00
7:56 PM,75.0,73.0,94,30.06,7.0,SSW,6.9,-,0.09,Rain,Light Rain,200,2013-07-31 23:56:00
8:56 PM,73.9,72.0,93,30.05,10.0,South,4.6,-,0.00,,Mostly Cloudy,180,2013-08-01 00:56:00
9:56 PM,75.0,73.0,94,30.05,10.0,Calm,Calm,-,N/A,,Mostly Cloudy,0,2013-08-01 01:56:00
10:56 PM,75.0,73.0,94,30.05,10.0,SSW,3.5,-,N/A,,Overcast,200,2013-08-01 02:56:00
11:56 PM,75.0,72.0,90,30.04,10.0,SSW,5.8,-,N/A,,Overcast,200,2013-08-01 03:56:00